Location: Il Ritiro
(43.4167°N, 13.1333°E)
Time: 08:00:52
(UTC+00:00)

COSMOS 2428 - Pass Details

Date: 05 July 2020
Orbit: 844 x 859 km, 70.9° (Epoch: 06 August)

Event Time Altitude Azimuth Distance (km) Brightness Sun altitude
Exits shadow 21:57:26 - 233° (SW) 3,395 5.7 -21.7°
Rises 21:57:27 0° 233° (SW) 3,392 5.7 -21.7°
Reaches altitude 10° 22:00:09 10° 243° (WSW) 2,461 5.0 -21.9°
Maximum altitude 22:05:09 32° 306° (NW) 1,419 4.3 -22.1°
Drops below altitude 10° 22:10:12 10° 8° (N) 2,477 6.0 -22.4°
Sets 22:12:57 0° 19° (NNE) 3,417 6.8 -22.5°
